Location: Newsoms
(36.6240°N, 77.1250°W)
Time: 18:11:45
(UTC-04:00)

Daily predictions for brighter satellites

Satellite Brightness Start Highest point End
(mag) Time Altitude Azimuth Time Altitude Azimuth Time Altitude Azimuth
Meteor 1-24 Rocket 3.7 19:13:25 10° N 19:18:59 63° E 19:24:20 10° SSE
Cosmos 1603 4.5 19:14:22 10° SSE 19:19:19 31° ESE 19:24:18 10° NE
GPS 2-04 Rocket1 3.6 19:17:14 10° SW 19:20:12 27° SSE 19:23:15 10° E
Cosmos 1624 Rocket 4.0 19:17:24 10° NNW 19:22:38 85° ENE 19:27:49 10° SSE
CZ-2C R/B 3.9 19:19:37 10° S 19:24:19 42° W 19:28:55 10° NNW
NOAA 12 4.4 19:20:22 10° SE 19:25:20 45° ENE 19:30:20 10° N
Meteor 2-5 Rocket 4.4 19:21:02 10° NNW 19:26:33 60° W 19:31:59 10° S
Aureole 2 Rocket 3.4 19:23:51 10° SSW 19:28:12 68° WNW 19:32:29 10° NNE
SL-8 R/B 4.0 19:24:25 10° SSW 19:29:01 47° SE 19:33:35 10° ENE
ATLAS CENTAUR R/B 3.3 19:26:51 10° SW 19:31:06 87° SE 19:44:20 10° NE
Cosmos 724 4.4 19:27:28 10° S 19:33:09 54° ESE 19:39:03 10° NE
SAR-Lupe-1 4.1 19:31:26 10° SSE 19:34:56 58° ENE 19:38:27 10° N
SeaSat 1 4.2 19:35:13 11° E 19:36:03 11° ESE 19:37:36 10° ESE
SJ-6B 2.9 19:32:30 10° SSE 19:36:23 59° ENE 19:40:24 10° N
Okean 3 Rocket 3.9 19:32:58 10° N 19:37:31 76° W 19:42:02 10° S
Helios 1A 3.8 19:36:03 10° SE 19:39:42 30° ENE 19:43:23 10° N
FREGAT/IRIS 2.9 19:36:56 10° SSE 19:39:54 45° ENE 19:42:52 10° N
In-Cosmos 22 4.5 19:34:27 10° N 19:40:03 49° ENE 19:45:35 10° SSE
Resurs 01 Rocket 2.2 19:37:21 10° SE 19:41:26 36° ENE 19:45:31 10° N
Meteor 1-29 3.9 19:38:39 10° NE 19:41:41 27° E 19:44:42 10° SSE
NOSS 3-2 (A) 4.1 19:39:10 10° SW 19:45:06 60° NW 19:51:34 10° NNE
Cosmos 1674 4.3 19:43:29 10° NE 19:45:56 16° ENE 19:46:25 16° E
Cosmos 1758 3.4 19:44:58 10° S 19:48:56 57° E 19:52:58 10° NNE
ASTRO E2 3.7 19:46:14 10° WSW 19:49:59 37° S 19:52:46 16° ESE
SEDSat Delta rocket 4.4 19:44:09 10° WSW 19:50:34 56° S 19:55:52 16° ESE
Cosmos 1484 Rocket 4.2 19:47:35 10° S 19:51:12 41° W 19:54:55 10° NNW
Cosmos 1452 Rocket 3.5 19:46:58 10° N 19:52:10 59° ENE 19:57:19 10° SSE
ATLAS 5 CENTAUR R/B 2.3 19:50:08 10° SW 19:54:49 64° NW 19:59:53 10° NNE
Abrixas 2.3 19:52:44 10° SW 19:55:43 89° SSE 19:57:41 20° NE
Timation 1 Rocket 4.4 19:50:45 10° NNW 19:56:45 86° WSW 20:02:43 10° SSE
Nadezhda 4 Rocket 4.2 19:55:18 10° N 20:01:19 46° E 20:07:13 10° SSE
Cosmos 1346 3.7 19:59:38 10° N 20:02:23 33° ENE 20:02:37 32° E
Meteor 2-12 Rocket 4.4 19:56:50 10° S 20:02:56 70° E 20:09:04 10° NNE
Cosmos 468 4.4 20:01:42 10° SSW 20:06:57 83° ESE 20:12:13 10° NNE
Meteor 1-21 Rocket 4.1 20:03:26 10° N 20:08:57 65° E 20:14:25 10° SSE
Cosmos 1092 Rocket 4.4 20:03:30 10° N 20:09:14 38° ENE 20:13:46 15° SE
ASTEX 1 3.6 20:08:14 10° NNE 20:12:55 43° E 20:17:33 10° SSE
Cosmos 1420 Rocket 4.2 20:08:09 10° N 20:13:18 50° ENE 20:16:34 22° SE
Atlas Centaur 2 4.2 20:06:54 10° W 20:14:20 34° SSW 20:20:45 12° SE
SL-16 R/B 4.1 20:10:53 10° WSW 20:15:52 31° WNW 20:20:53 10° N
CENTAUR R/B 2.6 20:10:52 10° S 20:16:30 48° ESE 20:22:47 10° NE
Cosmos 1544 3.0 20:14:28 10° S 20:18:11 89° E 20:21:57 10° N
Helios 1B rocket 2.6 20:14:55 10° N 20:19:02 72° WNW 20:23:07 10° SSW
METEOR-M 4.3 20:13:58 10° S 20:19:18 75° WSW 20:24:40 10° NNW
Cosmos 1634 Rocket 4.3 20:16:15 10° SSE 20:22:03 42° E 20:27:50 10° NNE
Cosmos 1766 Rocket 4.2 20:18:47 10° NNW 20:23:03 55° W 20:27:16 10° S
CZ-2D R/B 3.5 20:24:44 44° ENE 20:24:47 44° ENE 20:28:30 10° N
Spot 2 Rocket 3.7 20:21:21 10° S 20:26:21 71° WSW 20:31:24 10° NNW
OAO 3 Rocket 3.2 20:23:53 10° W 20:28:38 70° S 20:30:04 44° ESE
Cosmos 1048 Rocket 3.9 20:24:30 10° SSW 20:29:49 87° ESE 20:35:06 10° NNE
Cosmos 1269 Rocket 4.1 20:25:05 10° SSW 20:30:22 79° WNW 20:35:40 10° NNE
FENGYUN 3A 3.5 20:28:51 17° SSE 20:32:59 72° ENE 20:38:21 10° N
Cosmos-2242 4.1 20:29:23 10° SSW 20:33:34 46° W 20:37:48 10° N
H-2A R/B 2.7 20:39:09 65° NE 20:39:09 65° NE 20:42:47 10° N
Gbstr 26 Del rocket 3.1 20:36:59 10° SW 20:41:22 83° SE 20:42:57 44° NE
Cosmos 1953 4.4 20:38:49 10° SW 20:42:17 28° WNW 20:45:46 10° NNW
Cosmos 1174 3.9 20:38:44 10° SSW 20:43:47 76° ESE 20:44:15 67° ENE
ISS -2.4 20:41:06 10° WSW 20:44:06 47° NW 20:44:06 47° NW
ALOS 2.3 20:42:16 25° S 20:44:57 81° WSW 20:49:39 10° NNW
BREEZE-M DEB (TANK) 4.2 20:39:09 10° WNW 20:50:16 39° N 20:52:04 30° NE
Cosmos 1842 Rocket 3.9 20:49:01 10° SSW 20:53:16 61° W 20:57:35 10° N
Cosmos 158 Rocket 3.7 20:50:06 10° SSW 20:54:59 88° ESE 20:59:53 10° NNE
Cosmos 1500 Rocket 3.7 20:51:50 10° NNW 20:56:15 72° W 20:57:01 57° SSW
USA 215 4.0 20:51:05 10° NE 20:57:21 51° NW 21:03:37 10° WSW
Cosmos 1943 3.1 20:52:16 10° SSW 20:57:54 86° WNW 21:03:34 10° NNE
GPS 2-04 Rocket1 4.0 20:56:12 10° WSW 20:58:12 32° WSW 20:58:12 32° WSW
Cosmos 1943 Rocket 3.6 20:55:04 10° N 20:58:07 23° NNE 20:58:07 23° NNE
Cosmos 2369 Rocket 2.2 20:54:14 10° NNW 20:59:45 62° ENE 20:59:45 62° ENE
Cosmos 1470 4.0 21:00:40 10° SSW 21:04:20 40° W 21:08:02 10° N
Cosmos 1627 Rocket 4.3 21:04:34 10° N 21:10:48 78° E 21:11:14 74° SE
ERS-1 Rocket 4.3 21:15:22 29° N 21:15:22 29° N 21:17:55 10° N
SeaSat 1 3.0 21:15:13 51° SW 21:15:13 51° SW 21:18:54 10° SSW
Resurs 01 Rocket 4.3 21:15:01 10° SW 21:17:59 18° W 21:20:59 10° NW
Cosmos 839 Rocket 4.3 21:37:29 10° NNW 21:44:15 70° WNW 21:44:15 70° WNW
CENTAUR R/B 4.1 22:02:04 10° WSW 22:07:23 30° NW 22:13:18 10° NNE
